| time (UTC) | temp F | wind direction | speed MPH | gust MPH | rain 1hr in | rain 24hr in | rain mn in | humidity % | barometer mb |
| 20260906031547 | 63 | 174 | 0.0 | 3.0 | 0.00 | 0.00 | 0.00 | 82 | 1025.0 |
| 20260906030047 | 63 | 142 | 2.0 | 3.0 | 0.00 | 0.00 | 0.00 | 81 | 1025.0 |
| 20260906024542 | 64 | 141 | 1.0 | 2.0 | 0.00 | 0.00 | 0.00 | 81 | 1024.9 |
| 20260906023045 | 64 | 141 | 0.0 | 1.0 | 0.00 | 0.00 | 0.00 | 80 | 1024.9 |
| 20260906021544 | 65 | 141 | 0.0 | 2.0 | 0.00 | 0.00 | 0.00 | 80 | 1024.7 |
| 20260906020037 | 66 | 141 | 0.0 | 2.0 | 0.00 | 0.00 | 0.00 | 79 | 1024.5 |
| 20260906014546 | 66 | 141 | 0.0 | 2.0 | 0.00 | 0.00 | 0.00 | 79 | 1024.6 |
| 20260906013042 | 66 | 141 | 0.0 | 1.0 | 0.00 | 0.00 | 0.00 | 78 | 1024.6 |
| 20260906011536 | 66 | 141 | 0.0 | 2.0 | 0.00 | 0.00 | 0.00 | 79 | 1024.4 |
| 20260906010034 | 66 | 141 | 0.0 | 1.0 | 0.00 | 0.00 | 0.00 | 79 | 1024.3 |
| 20260906004534 | 65 | 141 | 0.0 | 1.0 | 0.00 | 0.00 | 0.00 | 80 | 1024.3 |
| 20260906003032 | 64 | 141 | 1.0 | 2.0 | 0.00 | 0.00 | 0.00 | 81 | 1024.3 |
| 20260906001532 | 64 | 141 | 0.0 | 2.0 | 0.00 | 0.00 | 0.00 | 81 | 1024.3 |
| 20260906000029 | 64 | 141 | 0.0 | 1.0 | 0.00 | 0.00 | 0.00 | 79 | 1024.2 |
| 20260905234529 | 65 | 141 | 1.0 | 2.0 | 0.00 | 0.00 | 0.00 | 78 | 1024.0 |
| 20260905233024 | 66 | 141 | 0.0 | 3.0 | 0.00 | 0.00 | 0.00 | 76 | 1024.0 |
| 20260905231521 | 67 | 122 | 0.0 | 2.0 | 0.00 | 0.00 | 0.00 | 76 | 1024.0 |
| 20260905230018 | 68 | 122 | 0.0 | 2.0 | 0.00 | 0.00 | 0.00 | 74 | 1023.8 |
| 20260905224519 | 69 | 122 | 0.0 | 1.0 | 0.00 | 0.00 | 0.00 | 73 | 1023.8 |
| 20260905223015 | 70 | 122 | 0.0 | 2.0 | 0.00 | 0.00 | 0.00 | 72 | 1023.7 |
| 20260905221514 | 69 | 122 | 0.0 | 0.0 | 0.00 | 0.00 | 0.00 | 73 | 1023.7 |
| 20260905220009 | 69 | 122 | 0.0 | 2.0 | 0.00 | 0.00 | 0.00 | 72 | 1023.4 |
| 20260905214510 | 69 | 122 | 0.0 | 2.0 | 0.00 | 0.00 | 0.00 | 73 | 1023.5 |
| 20260905213008 | 69 | 122 | 0.0 | 2.0 | 0.00 | 0.00 | 0.00 | 73 | 1023.4 |
| 20260905211507 | 69 | 122 | 0.0 | 2.0 | 0.00 | 0.00 | 0.00 | 73 | 1023.2 |
| 20260905210007 | 68 | 122 | 0.0 | 1.0 | 0.00 | 0.00 | 0.00 | 73 | 1023.1 |
| 20260905204503 | 68 | 122 | 1.0 | 3.0 | 0.00 | 0.00 | 0.00 | 72 | 1023.0 |
| 20260905203003 | 68 | 121 | 0.0 | 3.0 | 0.00 | 0.00 | 0.00 | 71 | 1022.9 |
| 20260905201501 | 69 | 121 | 1.0 | 2.0 | 0.00 | 0.00 | 0.00 | 69 | 1022.7 |
| 20260905200103 | 71 | 121 | 0.0 | 2.0 | 0.00 | 0.00 | 0.00 | 68 | 1022.7 |
| 20260905194559 | 72 | 121 | 0.0 | 2.0 | 0.00 | 0.00 | 0.00 | 64 | 1022.4 |
| 20260905193057 | 73 | 121 | 0.0 | 1.0 | 0.00 | 0.00 | 0.00 | 65 | 1022.2 |
| 20260905191555 | 73 | 121 | 0.0 | 1.0 | 0.00 | 0.00 | 0.00 | 63 | 1021.9 |
| 20260905190059 | 74 | 121 | 0.0 | 2.0 | 0.00 | 0.00 | 0.00 | 63 | 1021.6 |
| 20260905184553 | 74 | 121 | 0.0 | 1.0 | 0.00 | 0.00 | 0.00 | 62 | 1021.7 |
| 20260905183109 | 74 | 121 | 0.0 | 2.0 | 0.00 | 0.00 | 0.00 | 62 | 1021.4 |
| 20260905181549 | 75 | 117 | 1.0 | 3.0 | 0.00 | 0.00 | 0.00 | 60 | 1021.1 |
| 20260905180047 | 76 | 117 | 1.0 | 2.0 | 0.00 | 0.00 | 0.00 | 58 | 1020.9 |
| 20260905174545 | 77 | 117 | 1.0 | 3.0 | 0.00 | 0.00 | 0.00 | 55 | 1020.8 |
| 20260905173044 | 78 | 51 | 0.0 | 2.0 | 0.00 | 0.00 | 0.00 | 52 | 1020.6 |
| 20260905171549 | 79 | 77 | 1.0 | 4.0 | 0.00 | 0.00 | 0.00 | 50 | 1020.3 |
| 20260905170042 | 80 | 78 | 1.0 | 7.0 | 0.00 | 0.00 | 0.00 | 48 | 1020.1 |
| 20260905164541 | 81 | 89 | 2.0 | 8.0 | 0.00 | 0.00 | 0.00 | 47 | 1020.1 |
| 20260905163041 | 82 | 34 | 2.0 | 9.0 | 0.00 | 0.00 | 0.00 | 46 | 1019.7 |
| 20260905161537 | 83 | 79 | 4.0 | 10.0 | 0.00 | 0.00 | 0.00 | 45 | 1019.5 |
| 20260905160035 | 83 | 96 | 4.0 | 12.0 | 0.00 | 0.00 | 0.00 | 45 | 1019.3 |
| 20260905154533 | 83 | 22 | 4.0 | 9.0 | 0.00 | 0.00 | 0.00 | 45 | 1019.1 |
| 20260905153044 | 84 | 80 | 6.0 | 14.0 | 0.00 | 0.00 | 0.00 | 45 | 1019.1 |
| 20260905151531 | 84 | 50 | 5.0 | 12.0 | 0.00 | 0.00 | 0.00 | 44 | 1019.0 |
| 20260905150030 | 85 | 41 | 3.0 | 12.0 | 0.00 | 0.00 | 0.00 | 43 | 1019.0 |
| 20260905144530 | 85 | 96 | 4.0 | 11.0 | 0.00 | 0.00 | 0.00 | 43 | 1019.0 |
| 20260905143029 | 86 | 111 | 5.0 | 13.0 | 0.00 | 0.00 | 0.00 | 42 | 1018.6 |
| 20260905141531 | 87 | 90 | 3.0 | 13.0 | 0.00 | 0.00 | 0.00 | 42 | 1018.7 |
| 20260905140027 | 86 | 113 | 5.0 | 17.0 | 0.00 | 0.00 | 0.00 | 43 | 1018.7 |
| 20260905134525 | 87 | 111 | 5.0 | 15.0 | 0.00 | 0.00 | 0.00 | 43 | 1018.6 |
| 20260905133023 | 86 | 98 | 6.0 | 16.0 | 0.00 | 0.00 | 0.00 | 43 | 1018.4 |
| 20260905131523 | 87 | 55 | 5.0 | 10.0 | 0.00 | 0.00 | 0.00 | 43 | 1018.4 |
| 20260905130022 | 86 | 89 | 6.0 | 14.0 | 0.00 | 0.00 | 0.00 | 44 | 1018.3 |
| 20260905124524 | 86 | 22 | 5.0 | 15.0 | 0.00 | 0.00 | 0.00 | 45 | 1018.3 |
| 20260905123020 | 86 | 53 | 7.0 | 14.0 | 0.00 | 0.00 | 0.00 | 46 | 1018.5 |
| 20260905121518 | 87 | 18 | 7.0 | 21.0 | 0.00 | 0.00 | 0.00 | 44 | 1018.3 |
| 20260905120021 | 87 | 105 | 6.0 | 18.0 | 0.00 | 0.00 | 0.00 | 45 | 1018.3 |
| 20260905114517 | 89 | 62 | 6.0 | 19.0 | 0.00 | 0.00 | 0.00 | 46 | 1018.2 |
| 20260905113013 | 90 | 70 | 6.0 | 12.0 | 0.00 | 0.00 | 0.00 | 45 | 1018.0 |
| 20260905111516 | 90 | 120 | 5.0 | 15.0 | 0.00 | 0.00 | 0.00 | 46 | 1018.0 |
| 20260905110011 | 91 | 78 | 6.0 | 15.0 | 0.00 | 0.00 | 0.00 | 42 | 1017.7 |
| 20260905104508 | 93 | 297 | 2.0 | 4.0 | 0.00 | 0.00 | 0.00 | 33 | 1017.7 |
| 20260905103007 | 93 | 76 | 2.0 | 7.0 | 0.00 | 0.00 | 0.00 | 34 | 1017.8 |
| 20260905101505 | 92 | 56 | 1.0 | 4.0 | 0.00 | 0.00 | 0.00 | 33 | 1017.8 |
| 20260905100002 | 91 | 184 | 2.0 | 6.0 | 0.00 | 0.00 | 0.00 | 33 | 1018.0 |
| 20260905094559 | 91 | 341 | 0.0 | 3.0 | 0.00 | 0.00 | 0.00 | 34 | 1018.1 |
| 20260905093055 | 90 | 333 | 1.0 | 3.0 | 0.00 | 0.00 | 0.00 | 35 | 1017.9 |
| 20260905091557 | 89 | 249 | 1.0 | 4.0 | 0.00 | 0.00 | 0.00 | 36 | 1017.9 |
| 20260905090112 | 89 | 250 | 1.0 | 6.0 | 0.00 | 0.00 | 0.00 | 36 | 1017.7 |
| 20260905084548 | 88 | 261 | 0.0 | 3.0 | 0.00 | 0.00 | 0.00 | 38 | 1017.7 |
| 20260905083051 | 87 | 300 | 1.0 | 3.0 | 0.00 | 0.00 | 0.00 | 41 | 1017.7 |
| 20260905081548 | 86 | 321 | 0.0 | 2.0 | 0.00 | 0.00 | 0.00 | 44 | 1017.6 |
| 20260905080046 | 84 | 268 | 1.0 | 4.0 | 0.00 | 0.00 | 0.00 | 47 | 1017.5 |
| 20260905074538 | 83 | 327 | 1.0 | 4.0 | 0.00 | 0.00 | 0.00 | 51 | 1017.3 |
| 20260905073032 | 80 | 279 | 0.0 | 1.0 | 0.00 | 0.00 | 0.00 | 53 | 1017.2 |
| 20260905071529 | 77 | 279 | 1.0 | 2.0 | 0.00 | 0.00 | 0.00 | 58 | 1017.3 |
| 20260905070024 | 75 | 279 | 0.0 | 2.0 | 0.00 | 0.00 | 0.00 | 62 | 1017.3 |
| 20260905064520 | 73 | 279 | 0.0 | 2.0 | 0.00 | 0.00 | 0.00 | 66 | 1017.6 |
| 20260905063016 | 70 | 279 | 0.0 | 1.0 | 0.00 | 0.00 | 0.00 | 69 | 1017.5 |
| 20260905061515 | 68 | 279 | 0.0 | 2.0 | 0.00 | 0.00 | 0.00 | 74 | 1017.3 |
| 20260905060008 | 66 | 279 | 0.0 | 3.0 | 0.00 | 0.00 | 0.00 | 78 | 1017.5 |
| 20260905054506 | 63 | 273 | 0.0 | 1.0 | 0.00 | 0.00 | 0.00 | 82 | 1017.4 |
| 20260905053004 | 62 | 273 | 0.0 | 2.0 | 0.00 | 0.00 | 0.00 | 85 | 1017.5 |
| 20260905051507 | 60 | 273 | 0.0 | 2.0 | 0.00 | 0.00 | 0.00 | 88 | 1017.3 |
| 20260905050107 | 59 | 331 | 1.0 | 2.0 | 0.00 | 0.00 | 0.00 | 88 | 1017.1 |
| 20260905044602 | 58 | 331 | 0.0 | 1.0 | 0.00 | 0.00 | 0.00 | 87 | 1017.1 |
| 20260905043058 | 59 | 331 | 0.0 | 4.0 | 0.00 | 0.00 | 0.00 | 88 | 1016.9 |
| 20260905041557 | 59 | 319 | 0.0 | 2.0 | 0.00 | 0.00 | 0.00 | 87 | 1016.7 |
| 20260905034556 | 59 | 320 | 0.0 | 2.0 | 0.00 | 0.00 | 0.00 | 86 | 1016.5 |
| 20260905033056 | 59 | 320 | 0.0 | 2.0 | 0.00 | 0.00 | 0.00 | 85 | 1016.5 |